This is the latest recevied weather packets stored in our database for station/object EA7DYY-12. If no packets are shown the sender has not sent any weather packets the latest 10 day(s).
| Time | Temp. | Humidity | Pressure | Rain* | Wind** | Luminosity | Snow |
|---|---|---|---|---|---|---|---|
| 1787751686 | 21.67° C | 54% | 1156.4 hPa | - | - | - | - |
| 1787749886 | 21.11° C | 55% | 1156.5 hPa | - | - | - | - |
| 1787748986 | 21.11° C | 55% | 1156.6 hPa | - | - | - | - |
| 1787748086 | 21.11° C | 56% | 1156.7 hPa | - | - | - | - |
| 1787747186 | 21.11° C | 59% | 1156.6 hPa | - | - | - | - |
| 1787746286 | 21.11° C | 59% | 1156.6 hPa | - | - | - | - |
| 1787745386 | 21.11° C | 58% | 1156.6 hPa | - | - | - | - |
| 1787744485 | 21.11° C | 59% | 1156.5 hPa | - | - | - | - |
| 1787742686 | 21.11° C | 61% | 1156.9 hPa | - | - | - | - |
| 1787741785 | 21.11° C | 61% | 1156.9 hPa | - | - | - | - |
| 1787740885 | 21.11° C | 60% | 1156.7 hPa | - | - | - | - |
| 1787739985 | 21.11° C | 60% | 1156.7 hPa | - | - | - | - |
| 1787739085 | 21.11° C | 61% | 1156.7 hPa | - | - | - | - |
| 1787738185 | 21.11° C | 60% | 1156.5 hPa | - | - | - | - |
| 1787737285 | 21.11° C | 60% | 1156.6 hPa | - | - | - | - |
| 1787735485 | 21.11° C | 58% | 1156.4 hPa | - | - | - | - |
| 1787734585 | 21.11° C | 58% | 1156.3 hPa | - | - | - | - |
| 1787733685 | 21.11° C | 60% | 1156 hPa | - | - | - | - |
| 1787732785 | 21.11° C | 60% | 1155.9 hPa | - | - | - | - |
| 1787731885 | 21.11° C | 60% | 1155.7 hPa | - | - | - | - |
| 1787730984 | 21.11° C | 60% | 1155.5 hPa | - | - | - | - |
| 1787730085 | 21.11° C | 59% | 1155.4 hPa | - | - | - | - |
| 1787728284 | 21.11° C | 60% | 1155.2 hPa | - | - | - | - |
| 1787727384 | 21.11° C | 59% | 1155.1 hPa | - | - | - | - |
| 1787726484 | 21.11° C | 60% | 1155 hPa | - | - | - | - |
* Rain since midnight (hover to see other rain measurements)
** Current wind speed in m/s (hover to see current wind gust speed)